Location: Songkhla
(7.2000°N, 100.6000°E)
Time: 04:16:20
(UTC+07:00)

BRICSAT 2 - Pass Details

Date: 26 June 2021
Orbit: 295 x 638 km, 28.5° (Epoch: 28 July)

Event Time Altitude Azimuth Distance (km) Brightness Sun altitude
Rises 07:14:45 0° 220° (SW) 2,623 ? 15.3°
Reaches altitude 10° 07:17:27 10° 205° (SSW) 1,658 ? 15.9°
Maximum altitude 07:20:29 22° 152° (SSE) 1,012 ? 16.6°
Drops below altitude 10° 07:23:13 10° 98° (E) 1,482 ? 17.2°
Sets 07:25:29 0° 82° (E) 2,269 ? 17.7°
